Regional Weather Roundup
Issued by NWS Raleigh/Durham, NC

Home | Current Version | Previous Version | Text Only | Print | Product List | Glossary On
Versions: 1 2 3 4 5 6 7 8 9 10 11 12 13 14 15 16 17 18 19 20 21 22 23 24 25 26 27
000
ASUS42 KRAH 031210
RWRRAH
NORTH CAROLINA WEATHER ROUNDUP
NATIONAL WEATHER SERVICE RALEIGH NC
700 AM EST SAT DEC 03 2016

NOTE: "FAIR" INDICATES FEW OR NO CLOUDS BELOW 12,000 FEET WITH NO
SIGNIFICANT WEATHER AND/OR OBSTRUCTIONS TO VISIBILITY.

NCZ001-053-055-056-065-067-031300-
WESTERN NORTH CAROLINA

CITY           SKY/WX    TMP DP  RH WIND       PRES   REMARKS
ASHEVILLE      CLEAR     37  25  61 NW9       30.25R WCI  30
JEFFERSON      CLOUDY    29  25  86 N8        30.17F WCI  21
MORGANTON      PTCLDY    34  32  92 CALM      30.28R
HICKORY        PTCLDY    38  29  70 CALM      30.23R
RUTHERFORDTON  CLEAR     34  30  86 CALM      30.24S
MOUNT AIRY     CLOUDY    40  29  66 NW9       30.24S WCI  34
BOONE          PTCLDY    31  25  79 W14G20    30.20R WCI  21
$$

NCZ021-022-025-041-071-084-088-031300-
CENTRAL NORTH CAROLINA

CITY           SKY/WX    TMP DP  RH WIND       PRES   REMARKS
CHARLOTTE      PTCLDY    41  28  60 N12       30.24R
GREENSBORO     MOCLDY    40  29  64 NW5       30.23R
WINSTON-SALEM  CLOUDY    40  26  57 CALM      30.25R
RALEIGH-DURHAM PTCLDY    34  27  75 CALM      30.25R
FORT BRAGG     CLEAR     37  30  74 N6        30.24R WCI  33
FAYETTEVILLE   CLEAR     38  31  76 N7        30.24R WCI  33
BURLINGTON     PTCLDY    37  27  67 W3        30.24S
LAURINBURG     CLEAR     37  31  78 CALM      30.25R
$$

NCZ011-015-027-028-043-044-047-080-103-031300-
NORTHEASTERN NORTH CAROLINA

CITY           SKY/WX    TMP DP  RH WIND       PRES   REMARKS
ROCKY MT-WILSO CLOUDY    36  29  75 NW6       30.25S WCI  31
GREENVILLE     CLOUDY    32  32 100 CALM      30.25S
WASHINGTON       N/A     34  30  88 NW5       30.24S WCI  29
ELIZABETH CITY CLEAR     34  30  85 W8        30.22R WCI  27
MANTEO         CLEAR     43  31  62 N9G18     30.21R
CAPE HATTERAS  CLEAR     45  31  58 N10G22    30.20R
$$

NCZ078-087-090-091-093-098-101-031300-
SOUTHEASTERN NORTH CAROLINA

CITY           SKY/WX    TMP DP  RH WIND       PRES   REMARKS
LUMBERTON      PTCLDY    34  32  92 CALM      30.25R
GOLDSBORO      CLEAR     39  29  67 NW5       30.24R
KINSTON        CLEAR     34  30  86 NW3       30.26R
KENANSVILLE    CLEAR     39  28  65 N6        30.25R WCI  35
NEW BERN       CLEAR     38  31  76 NW5       30.25R WCI  34
CHERRY POINT   CLEAR     42  33  70 N10       30.24R
BEAUFORT       CLEAR     41  34  76 N8        30.23
JACKSONVILLE   CLEAR     40  33  76 N7        30.24R
WILMINGTON     PTCLDY    39  32  76 N7        30.24R WCI  34
$$





USA.gov is the U.S. government's official web portal to all federal, state and local government web resources and services.